Wind_Speed
23 22 21 21 21 21 22 23 24 25 26 24 22 21 22 22 21 21 21 20 19 18 16 14 13 14 15 15 15 15 15 15 14 13 9 6 6 8 10 12 15 17 19
26 24 23 22 22 23 24 24 24 25 25 25 24 24 24 25 25 24 23 22 22 21 20 17 15 14 15 16 17 17 16 16 15 14 12 8 6 6 7 10 13 15 17
26 26 25 23 23 24 26 26 25 26 26 27 27 27 27 27 28 28 27 25 25 24 21 20 18 16 17 18 19 20 19 18 18 16 14 12 10 8 7 8 10 12 13
26 26 26 25 25 25 26 26 27 27 28 28 29 29 29 29 30 29 29 29 28 26 24 20 20 21 21 21 22 23 23 22 20 19 17 15 13 11 10 9 9 10 11
25 25 25 26 26 27 28 27 28 29 29 29 29 30 31 31 31 30 30 31 29 28 25 23 23 23 24 25 25 26 26 25 24 23 21 18 16 15 13 12 11 11 11
23 23 23 25 26 28 28 28 28 28 27 28 29 30 30 30 29 29 29 29 28 27 26 25 25 25 26 27 28 28 29 28 28 26 24 22 20 18 16 15 15 15 14
21 22 23 24 26 27 27 27 26 26 27 27 27 26 26 26 26 25 25 24 23 23 24 26 26 26 27 28 29 30 31 31 30 30 28 26 24 21 19 18 17 17 17
20 21 23 25 27 27 27 26 25 25 25 25 24 23 23 22 22 21 19 18 18 19 20 23 24 24 25 26 28 30 32 33 34 34 31 29 27 25 23 20 19 19 19
21 22 24 25 26 26 26 26 25 24 24 24 23 22 21 19 18 16 15 15 15 16 17 18 19 21 22 24 27 32 35 36 36 36 35 32 30 28 26 24 23 21 20
22 22 23 24 24 24 25 25 24 24 24 24 23 22 21 19 17 15 14 14 14 15 16 17 19 20 21 22 24 28 33 36 38 38 37 35 34 32 30 28 27 25 24
21 22 23 23 23 23 24 23 22 23 24 23 23 22 21 20 18 16 15 14 14 14 15 16 17 19 20 20 22 24 29 35 38 38 36 35 35 34 32 31 30 30 28
22 22 22 22 23 23 23 22 22 24 25 24 22 22 22 22 21 20 18 17 16 16 16 16 17 18 19 20 21 22 25 29 33 36 36 36 35 34 33 32 33 33 32
24 23 23 23 24 23 22 22 24 26 25 23 21 21 22 23 23 23 22 20 19 18 18 17 18 19 19 19 20 21 22 24 28 32 35 35 35 34 33 33 33 33 33
27 26 25 24 23 21 21 22 25 25 23 21 20 21 21 22 23 23 23 23 22 21 20 20 20 20 21 21 20 20 21 23 26 29 31 33 35 35 35 34 35 35 35
28 26 26 25 22 21 21 23 25 23 21 21 21 21 22 22 23 23 23 23 23 22 22 22 21 22 22 22 22 22 22 23 24 26 28 31 33 35 36 36 36 36 36
27 27 25 24 22 22 23 24 23 21 21 21 23 23 23 23 23 22 22 23 23 23 24 24 23 24 24 25 25 24 24 25 25 25 26 28 30 33 35 37 37 37 36
26 25 24 23 23 23 23 22 21 21 21 22 23 23 23 23 23 22 22 23 23 24 24 25 25 25 25 26 26 27 27 26 26 26 27 27 28 29 32 35 36 37 36
22 21 21 21 20 20 20 21 21 22 22 22 23 23 23 24 24 24 24 24 24 24 25 25 26 26 26 27 27 28 28 27 27 26 26 27 28 28 28 31 34 35 36
16 16 16 16 17 18 19 21 22 22 22 23 23 24 25 26 26 26 26 26 25 25 25 25 26 26 27 28 28 28 28 28 27 26 26 27 28 28 27 27 30 32 34
10 11 12 13 16 18 19 20 20 21 22 24 25 25 25 25 25 25 25 25 26 26 25 25 26 27 27 28 28 29 29 29 28 27 26 26 26 26 27 27 27 28 32
8 9 11 14 15 16 17 18 19 20 22 23 23 23 22 22 21 22 22 23 24 26 26 27 27 28 28 29 28 29 30 30 29 27 26 24 24 24 25 26 27 27 28
9 11 12 13 13 13 14 15 18 20 21 21 20 19 19 18 18 18 19 20 22 25 27 29 30 30 29 28 28 29 29 29 28 27 26 24 23 23 24 25 26 27 27
10 12 12 11 10 11 12 15 18 19 19 18 17 16 15 15 15 15 16 18 21 23 26 28 30 30 29 28 27 28 28 28 27 26 25 24 22 22 22 23 23 25 26
11 11 11 9 9 10 13 16 18 18 17 16 14 13 13 13 14 15 16 17 19 21 23 26 27 28 29 28 26 25 26 26 25 24 23 23 22 22 21 21 22 22 23
11 11 10 9 9 11 13 15 16 16 15 13 12 12 12 13 14 14 15 16 17 16 16 18 20 22 24 24 23 23 22 23 22 21 20 21 21 22 22 22 21 21 22
11 11 10 9 10 11 13 14 14 14 13 12 12 11 11 12 13 14 14 15 14 13 9 8 10 12 15 17 18 19 19 19 18 18 18 19 20 21 22 23 23 23 22
Wind_Direction
277 281 285 288 290 287 287 290 288 290 293 294 295 297 297 294 287 278 277 279 274 263 252 244 241 238 239 240 239 236 233 232 230 231 234 223 206 206 209 213 214 213 211
275 281 284 285 286 284 285 288 288 289 292 294 295 294 292 288 282 276 274 273 270 265 259 248 241 245 247 245 242 240 235 231 229 225 224 226 222 215 214 217 216 215 215
275 281 282 282 283 283 286 291 291 291 292 293 292 291 289 286 280 275 272 270 268 264 264 255 248 255 257 253 245 240 237 232 227 223 221 226 231 228 224 223 221 218 217
274 279 280 281 284 286 290 292 292 293 293 292 289 288 286 282 278 274 272 270 267 263 260 258 256 256 261 259 251 241 238 233 227 224 224 227 231 230 229 230 230 226 223
272 276 278 281 286 289 292 292 292 293 292 290 287 284 282 279 277 274 271 268 264 260 256 256 254 257 259 258 255 244 237 233 228 226 226 228 232 232 233 237 241 240 237
269 274 276 280 285 289 293 295 295 294 291 287 284 281 279 278 277 275 270 266 262 258 256 256 255 257 258 258 254 245 237 234 230 228 227 228 233 234 235 240 245 247 246
265 270 275 282 287 291 293 294 293 292 291 289 286 282 279 278 276 273 269 264 260 257 256 256 257 258 258 257 253 246 239 235 231 229 228 229 233 236 238 242 248 253 252
266 274 281 286 289 292 293 292 293 294 293 292 291 288 282 277 274 270 264 259 257 257 258 257 257 257 256 255 252 247 241 236 233 231 230 231 232 236 240 244 250 253 254
275 281 285 287 290 291 292 293 293 295 296 295 295 292 285 279 274 268 262 259 258 259 259 258 257 255 255 256 252 248 244 238 237 235 232 232 233 235 240 245 248 250 251
277 280 282 284 287 289 291 293 293 295 298 298 295 291 284 278 273 269 266 266 265 263 261 261 259 258 259 257 254 245 242 239 237 236 234 234 233 235 242 246 246 246 246
275 279 282 284 286 288 290 292 295 299 301 299 295 289 281 275 272 270 269 270 270 269 266 263 262 259 256 253 251 245 241 238 236 234 232 233 234 236 244 247 246 246 245
272 277 281 283 286 288 291 293 298 302 302 299 294 288 282 276 273 271 270 271 272 272 270 265 263 260 256 253 250 248 244 239 235 232 230 231 233 238 244 248 247 246 244
273 275 276 279 283 285 288 292 298 300 298 295 290 286 282 278 276 273 272 272 272 273 271 267 261 256 253 250 249 245 242 238 234 233 232 232 233 239 244 247 246 245 246
277 275 276 279 279 281 286 294 299 298 293 288 284 283 282 281 279 276 274 273 271 270 268 265 258 252 249 247 245 242 240 239 240 240 239 238 240 242 244 245 246 246 248
272 272 273 273 274 277 284 291 296 293 288 283 281 281 282 282 281 278 274 271 268 265 263 261 256 250 247 245 244 244 244 244 244 246 246 245 245 244 245 246 247 248 249
267 268 272 269 273 278 283 289 290 287 284 281 281 282 282 282 281 279 275 270 266 262 259 257 255 251 248 246 247 248 248 248 248 250 250 250 249 247 246 246 247 247 249
261 265 268 270 275 279 283 285 285 286 286 285 284 284 283 283 282 280 276 272 267 261 259 257 255 252 250 249 249 250 250 249 250 251 251 251 250 249 247 247 247 247 248
257 261 266 272 275 278 281 284 287 290 290 288 288 287 285 283 282 279 275 271 267 263 260 257 255 252 250 249 248 247 247 247 247 248 248 249 250 251 249 248 247 247 247
254 259 265 270 276 281 285 288 292 294 294 293 291 290 287 285 283 279 275 272 268 264 261 257 255 252 250 249 248 246 245 244 245 246 247 249 250 250 251 250 247 246 245
250 255 264 274 281 285 289 291 295 296 297 296 295 293 291 288 284 280 275 270 267 263 261 259 256 253 252 251 249 247 245 244 245 247 248 248 249 251 251 253 251 247 244
258 267 277 283 286 288 291 294 298 300 301 300 299 297 295 292 288 283 277 272 268 264 261 259 257 256 255 253 251 250 248 247 248 250 250 250 250 252 253 254 256 253 248
275 281 284 287 290 292 296 301 306 308 308 306 303 301 299 298 295 290 284 279 273 268 263 260 258 256 255 254 250 247 246 247 249 251 252 252 253 253 255 256 258 260 257
291 293 293 295 296 299 305 311 316 317 317 314 310 307 306 306 305 302 296 291 284 276 269 263 259 256 253 252 248 244 244 246 248 251 252 252 252 253 255 258 260 261 262
306 305 303 301 302 306 312 318 322 324 323 320 316 314 314 314 315 313 310 306 298 287 276 265 257 253 250 249 247 241 241 243 246 249 249 249 250 251 254 257 261 263 265
315 314 311 310 313 316 319 323 327 328 328 327 325 323 322 323 324 324 325 324 319 309 289 267 255 248 244 242 238 235 237 239 240 242 244 245 247 250 253 258 261 265 269
324 323 322 323 324 323 324 327 329 331 335 338 337 333 331 332 335 337 339 340 340 335 319 281 253 241 235 231 231 230 230 231 233 237 241 245 248 251 254 257 261 265 268
Height
5860 5859 5858 5858 5857 5856 5855 5854 5853 5852 5851 5849 5848 5847 5845 5844 5842 5841 5839 5837 5835 5835 5834 5834 5835 5836 5837 5839 5840 5842 5844 5845 5846 5848 5849 5849 5849 5850 5851 5852 5853 5855 5856
5855 5854 5854 5853 5853 5852 5850 5849 5848 5846 5845 5844 5843 5842 5841 5839 5838 5837 5835 5833 5832 5831 5830 5831 5831 5832 5833 5835 5837 5839 5840 5842 5843 5845 5847 5848 5849 5849 5849 5850 5852 5853 5855
5849 5849 5848 5848 5848 5846 5845 5843 5842 5840 5839 5838 5837 5836 5835 5833 5832 5831 5829 5828 5827 5826 5825 5826 5827 5828 5829 5831 5833 5835 5837 5838 5840 5842 5844 5846 5848 5848 5849 5849 5850 5852 5853
5844 5844 5843 5843 5842 5840 5839 5838 5836 5834 5833 5831 5830 5829 5828 5826 5825 5824 5823 5822 5821 5820 5820 5820 5821 5823 5825 5826 5828 5830 5832 5834 5837 5839 5841 5843 5845 5847 5848 5849 5849 5850 5851
5838 5838 5838 5837 5836 5834 5833 5832 5830 5829 5827 5825 5823 5822 5820 5818 5817 5816 5815 5815 5815 5815 5815 5815 5816 5818 5819 5820 5822 5824 5827 5829 5832 5834 5836 5839 5841 5843 5846 5847 5848 5848 5850
5832 5832 5832 5831 5830 5829 5828 5826 5825 5823 5820 5819 5817 5814 5812 5811 5809 5808 5808 5807 5808 5809 5810 5810 5811 5812 5813 5814 5815 5818 5821 5824 5827 5829 5832 5834 5837 5839 5842 5844 5845 5846 5847
5826 5826 5826 5826 5825 5824 5823 5821 5819 5817 5815 5813 5810 5808 5806 5804 5802 5801 5801 5801 5802 5803 5804 5804 5805 5805 5806 5806 5808 5811 5814 5817 5821 5824 5827 5830 5832 5834 5837 5840 5841 5843 5844
5821 5821 5821 5820 5819 5818 5817 5816 5814 5811 5809 5807 5804 5802 5800 5798 5797 5796 5795 5796 5796 5797 5798 5798 5798 5798 5799 5799 5800 5803 5806 5810 5814 5817 5821 5825 5827 5829 5832 5835 5837 5839 5841
5815 5815 5815 5814 5813 5812 5811 5810 5808 5806 5803 5801 5799 5796 5795 5794 5792 5791 5791 5792 5792 5792 5793 5793 5793 5793 5793 5793 5793 5795 5798 5803 5807 5811 5815 5819 5822 5824 5827 5830 5832 5835 5836
5809 5809 5809 5808 5807 5806 5804 5803 5801 5799 5797 5795 5793 5791 5790 5789 5789 5788 5788 5788 5788 5788 5788 5788 5788 5788 5788 5788 5787 5788 5790 5794 5799 5804 5808 5812 5816 5819 5822 5824 5827 5829 5831
5803 5803 5802 5801 5801 5799 5798 5797 5796 5793 5791 5789 5787 5786 5786 5785 5785 5785 5784 5784 5784 5784 5784 5784 5783 5783 5783 5783 5783 5783 5785 5787 5792 5796 5801 5805 5809 5813 5815 5818 5820 5823 5826
5796 5796 5796 5795 5794 5793 5792 5791 5790 5788 5786 5784 5782 5781 5780 5780 5780 5780 5780 5780 5779 5779 5779 5779 5779 5779 5778 5779 5779 5779 5780 5782 5785 5789 5794 5798 5802 5806 5808 5811 5813 5816 5819
5791 5791 5790 5790 5789 5788 5787 5786 5785 5783 5781 5779 5777 5776 5775 5775 5774 5774 5774 5774 5774 5774 5774 5774 5774 5774 5774 5774 5774 5775 5776 5778 5780 5783 5787 5790 5794 5798 5801 5803 5806 5809 5812
5786 5786 5785 5784 5783 5782 5782 5781 5779 5777 5775 5773 5772 5771 5770 5769 5769 5768 5768 5768 5767 5767 5768 5768 5768 5769 5769 5769 5770 5771 5772 5774 5776 5778 5780 5783 5786 5790 5793 5796 5799 5801 5804
5779 5779 5779 5778 5778 5777 5776 5775 5774 5772 5770 5769 5767 5766 5765 5764 5763 5762 5761 5761 5760 5760 5761 5761 5762 5763 5764 5764 5765 5766 5767 5768 5770 5772 5774 5776 5778 5781 5784 5787 5790 5793 5796
5771 5772 5772 5772 5772 5771 5771 5769 5768 5767 5765 5763 5762 5761 5759 5758 5757 5756 5755 5754 5753 5754 5754 5754 5755 5756 5757 5758 5759 5760 5761 5762 5764 5765 5767 5769 5770 5773 5776 5778 5781 5785 5787
5763 5765 5766 5766 5766 5765 5765 5764 5763 5761 5760 5758 5756 5754 5752 5751 5750 5749 5748 5747 5746 5746 5747 5747 5748 5749 5750 5751 5753 5754 5755 5756 5757 5759 5760 5762 5763 5765 5767 5770 5772 5776 5778
5758 5760 5761 5761 5761 5760 5759 5758 5757 5755 5753 5751 5749 5747 5745 5744 5742 5741 5740 5739 5739 5739 5739 5740 5740 5741 5743 5744 5745 5746 5747 5749 5750 5752 5754 5755 5757 5758 5760 5762 5764 5767 5769
5754 5755 5756 5756 5756 5756 5755 5753 5751 5749 5747 5744 5742 5740 5738 5736 5735 5733 5732 5731 5731 5731 5731 5731 5732 5733 5734 5735 5737 5738 5740 5741 5743 5745 5746 5748 5750 5751 5753 5755 5757 5759 5761
5752 5752 5753 5753 5752 5751 5749 5748 5746 5743 5741 5738 5735 5733 5731 5729 5726 5725 5724 5723 5722 5722 5722 5723 5724 5725 5726 5727 5728 5730 5732 5734 5736 5737 5739 5741 5743 5744 5746 5748 5749 5750 5751
5750 5750 5750 5749 5748 5747 5745 5743 5741 5738 5735 5732 5729 5726 5724 5721 5719 5717 5716 5715 5714 5714 5714 5714 5715 5716 5717 5719 5720 5722 5724 5726 5728 5730 5732 5734 5736 5737 5739 5741 5742 5742 5743
5749 5749 5747 5746 5744 5743 5741 5739 5736 5733 5730 5726 5723 5720 5717 5715 5713 5710 5709 5707 5706 5705 5705 5705 5706 5707 5708 5710 5711 5713 5716 5718 5720 5722 5725 5727 5729 5731 5732 5734 5734 5735 5736
5747 5746 5744 5743 5741 5739 5737 5735 5732 5728 5724 5721 5718 5715 5712 5710 5708 5705 5703 5701 5699 5697 5696 5696 5696 5697 5699 5701 5703 5705 5708 5710 5713 5715 5718 5720 5722 5724 5726 5727 5728 5729 5729
5745 5743 5742 5740 5738 5736 5734 5731 5728 5724 5720 5717 5714 5711 5709 5706 5704 5701 5698 5695 5691 5688 5686 5685 5686 5687 5689 5692 5694 5697 5700 5703 5706 5708 5711 5713 5716 5718 5720 5721 5722 5722 5723
5743 5741 5740 5738 5736 5734 5731 5728 5724 5721 5717 5714 5711 5708 5705 5703 5700 5697 5693 5689 5685 5680 5677 5676 5676 5678 5681 5684 5687 5690 5694 5697 5700 5702 5705 5707 5710 5712 5714 5715 5716 5716 5717
5741 5739 5738 5736 5733 5731 5728 5725 5722 5719 5715 5711 5708 5705 5703 5700 5697 5694 5690 5686 5682 5677 5673 5671 5672 5673 5675 5678 5682 5685 5689 5692 5695 5698 5700 5703 5705 5707 5708 5709 5710 5711 5711